Location: Baia Mare
(47.6567°N, 23.5850°E)
Time: 12:42:12
(UTC+03:00)

ISS - Pass Details

Date: 29 July 2018
Orbit: 402 x 408 km, 51.6° (Epoch: 21 July)

Event Time Altitude Azimuth Distance (km) Brightness Sun altitude
Rises 21:46:50 0° 278° (W) 2,319 1.2 -6.8°
Reaches altitude 10° 21:48:59 10° 287° (WNW) 1,461 0.3 -7.1°
Maximum altitude 21:52:06 39° 358° (N) 625 -2.5 -7.5°
Drops below altitude 10° 21:55:12 10° 69° (ENE) 1,464 -1.3 -7.9°
Enters shadow 21:57:13 - 77° (ENE) 2,259 -0.4 -8.1°
